Details From ESSA - Stockholm Arlanda
To TNCM - St Maarten - Princess Juliana Intl
Flight Number -
Tags Decoded
Created
Modified
Stats Distance 4,432 nm / 8,207 km
Max Altitude 0 ft / 0 m
Waypoints 3
Social Downloads 0
Likes 0
Share VATSIM

Download

Looking for another format? Having issues loading an existing format? Contact us
Advertisement - Login to hide

Notes

Decoded

Route

ESSA LPAZ TNCM

ID Type Via Altitude Latitude Longitude Leg Dist Tot Dist Heading (true) Name
O ESSA APT - 0 ft / 0 m 59.62640˚ 17.95074˚ - 0 nm - -
LPAZ APT - 0 ft / 0 m 36.97389˚ -25.17583˚ 2134 nm 2134 nm 250° / 216° -
O TNCM APT - 0 ft / 0 m 18.03937˚ -63.11961˚ 2297 nm 4431 nm 251° / 233° -

Altitude Profile

Advertisement - Login to hide

Weather


0- 5 10 15 20 25 30 35+ Temperature / ° C

Clouds and Precipitation
Forecast for 2018-05-27 12:00 UTC. Updated 3 hours ago

Ground ~20,000 ft ~40,000 ft Winds

ESSA

Details ICAO ESSA (ARN)
Name Stockholm Arlanda
Region Sweden
Timezone Europe/Stockholm (UTC+2.0)
Stats Elevation 137 ft / 42 m (AMSL)
Location 59.650140° 17.943628°
Runways 3
Magnetic Variation 6.173° E

METAR

ESSA 271420Z 01012KT CAVOK 20/M02 Q1031 NOSIG

Decode

TAF

TAF ESSA 271130Z 2712/2812 04013KT CAVOK BECMG 2719/2721 03003KT BECMG 2810/2812 13010KT

Decode

Departure Runways

ID Width Length Bearing (true) Bearing (mag) Surface Threshold Offset Overrun Length
01L 148 ft / 45 m 10,812 ft / 3,296 m 10.35° 4.18° Concrete 0 ft / 0 m 0 ft / 0 m
01R 148 ft / 45 m 8,188 ft / 2,496 m 10.38° 4.21° Asphalt 0 ft / 0 m 0 ft / 0 m
08 148 ft / 45 m 8,178 ft / 2,493 m 75.83° 69.66° Concrete 0 ft / 0 m 0 ft / 0 m
19L 148 ft / 45 m 8,188 ft / 2,496 m 190.39° 184.22° Asphalt 0 ft / 0 m 0 ft / 0 m
19R 148 ft / 45 m 10,812 ft / 3,296 m 190.36° 184.19° Concrete 0 ft / 0 m 0 ft / 0 m
26 148 ft / 45 m 8,178 ft / 2,493 m 255.87° 249.70° Concrete 0 ft / 0 m 0 ft / 0 m

TNCM

Details ICAO TNCM (SXM)
Name St Maarten - Princess Juliana Intl
Region Caribbean Netherlands, Aruba, Curaçao, Sint Maarten
Timezone Unknown (UTC+0.0)
Stats Elevation 12 ft / 4 m (AMSL)
Location 18.040889° -63.108974°
Runways 1
Magnetic Variation 14.337° W

METAR

TNCM 271400Z 09009KT 060V130 9999 SCT008 29/24 Q1018 NOSIG RMK A3006

Decode

TAF

TAF TNCM 271143Z 2712/2812 09008KT P6SM VCTS SCT018CB BKN040 FM271500 12013KT P6SM VCTS SCT018CB BKN030 FM272200 09010KT P6SM VCSH SCT018 SCT040

Decode

Destination Runways

ID Width Length Bearing (true) Bearing (mag) Surface Threshold Offset Overrun Length
10 148 ft / 45 m 7,464 ft / 2,275 m 81.43° 95.77° Asphalt 0 ft / 0 m 151 ft / 46 m
28 148 ft / 45 m 7,464 ft / 2,275 m 261.44° 275.78° Asphalt 397 ft / 121 m 0 ft / 0 m

Popular Alternatives